STARLINK-2688 (48660 NORAD) Tracking and Keplerian Element Data

This shows tracking and keplerian element data for the satellite.

Feedback or suggestion? Click here.




ElementValue
Catalog48660
NameSTARLINK-2688
Epoch Orbit1045
Epoch Day214.41839079
Epoch Year2021
RAAN104.6372
Inclination53.0557
Eccentricity0.0001715
Argument of Perigee83.7059
Mean Anonmoly276.4125
Mean Motion15.0638967
Decay Rate-9.07E-06
L11 48660U 21044Y 21214.41839079 -.00000907 00000-0 -41975-4 0 9994
L22 48660 53.0557 104.6372 0001715 83.7059 276.4125 15.06389670 10452

Live tracking and technical data element details for STARLINK-2688 (NORAD 48660). STARLINK-2688 can be tracked NOW for your location showing map with azimuth and elevation plus other details from your city location.

Track the satellite on the map from your city or location and see movement details for azimuth, elevation, latitude, longitude, range, height, and movement on the map or in text.







IsCatalogInMostPopularTable: catalog: 48660, numindb: 14
Update: records affected: 1



GetName: 48660 STARLINK-2688

Hit Count: updated at: Tue, 03 Aug 2021 21:13:11 GMT